Погода Ростов Великий

Хотите узнать прогноз погоды Ростов Великий? Тогда Вам сюда: Погода Ростов Великий

Поиск расширенной информации на нашем сайте:

Полезная информация:

Новости сайта



02.01.2020
Опубликован Долгосрочный прогноз погоды по городам России и ближнего зарубежья на январь 2020 года.
Карты: Прогноз на январь и февраль 2020 года, Сравнение прогнозируемой аномалии приземной температуры воздуха на январь 2020 года по разным моделям.




Погода Ростов Великий - сегодня

Время (UTC), дата Ветер
(°,м/с) 
Видим.   Явления Облачность Т
(°С)
Тd
(°С)
f(%) Тe
(°С)
Pmin
(гПа)
dP
(гПа)
Po
(мм)
O2
(г/м3)
Тmin Tmax R s Состояние
почвы
18 24.01.20 300 (СЗ) 10 км  {снег}  10/0 средняя 
[Ac und]
+1.1 -0.1 92 -1  995.2  -0.9  737  296           
21 24.01.20 310 (СЗ) 10 км  {снег}  9/9 600 м 
[Sc]
+0.4 -0.5 94 -1  995.1  0.1  737  297           
00 25.01.20 290 (З) 10 км  {снег}  9/4 600 м средняя 
[Sc|Ac trans]
+0.8 -1.2 86 -2  994.3  -0.8  736  296           
03 25.01.20 310 (СЗ) 10 км    6/6 600 м 
[Sc]
-0.4 -2.3 87 -2  994.4  736  297  -1.1    0.1  равномерный
мокрый или
старый снег
100% 
06 25.01.20 280 (З) 10 км    10/10 600 м 
[Sc]
+0.1 -2.7 81 -2  993.9  -0.4  736  297  -1.1         
09 25.01.20 280 (З) 4-12{12}  10 км    8/4 600 м верхняя 
[Sc|Ci fib]
+0.9 -3.4 73 -1  993.3  -0.6  736  296           
12 25.01.20 250 (З) 2{12}  2000 м  ливневой снег  10/10 600 м кучево-дожд. 
[Cb cap]
+0.2 -0.6 94 -1  990.5  -2.8  734  295           
15 25.01.20 310 (СЗ) 5{12}  4000 м  слаб. ливневой снег  10/10 600 м кучево-дожд. 
[Cb cap]
-1.1 -3.3 85 -4  991.9  1.3  735  298    +1     
18 25.01.20 310 (СЗ) 5-10{12}  4000 м  в посл. час ливневой снег  10/10 600 м кучево-дожд. 
[Cb cap]
-1.2 -4.7 77 -4  993.9  1.9  736  298           
21 25.01.20 310 (СЗ) 5{12}  10 км  {ливн. осадки}  10/10 600 м 
[Sc]
-1.2 -5.6 72 -4  996.6  1.9  738  299           
00 26.01.20 320 (СЗ) 5-11{13}  10 км    10/10 600 м 
[Sc]
-1.3 -4.4 79 -5  1000.1  3.5  741  300           
03 26.01.20 320 (СЗ) 6-10{11}  10 км  слаб. ливневой снег  10/10 600 м кучево-дожд. 
[Cb cap]
-1.5 -7 66 -5  1003  2.8  743  302  -2    0.3  равномерный
мокрый или
старый снег
100% 
06 26.01.20 310 (СЗ) 3{13}  10 км  {ливн. осадки}  10/10 600 м 
[Sc]
-1.9 -5.4 77 -4  1006  2.9  745  303           
09 26.01.20 310 (СЗ) 10 км    10/10 600 м 
[Sc]
-1 -7.6 61 -4  1007.8  1.7  746  303           
12 26.01.20 270 (З) 10 км    6/6 600 м 
[Sc]
-1.6 -7.8 63 -3  1007.5  -0.3  746  303           
15 26.01.20 230 (ЮЗ) 4000 м  слаб. ливневой снег  10/10 600 м кучево-дожд. 
[Cb cap]
-2.1 -5.2 79 -3  1005.4  -2.1  745  303    -0.8  0.0     
18 26.01.20 230 (ЮЗ) 10 км  слаб. ливневой снег  10/10 600 м кучево-дожд. 
[Cb cap]
-1.9 -2.4 96 -3  1000.7  -4.6  741  301           
21 26.01.20 300 (СЗ) 6-11{11}  10 км  {ливн. осадки}  10/10 600 м 
[Sc]
+1.1 -0.2 91 -2  999.1  -1.5  740  297           
00 27.01.20 330 (СЗ) 5-10{11}  н/о    н/о 
-0.5 -2.6 86 -4  1003.2  743  300           
03 27.01.20 340 (С) 4{11}  4000 м  слаб. ливневой снег  10/10 600 м кучево-дожд. 
[Cb cap]
-2.6 -6 77 -5  1007.5  4.1  746  304  -2.6    равномерный
сухой снег
100% 
06 27.01.20 330 (СЗ) 10 км  {ливн. осадки}  ясно 
-7.9 -11.6 75 -8  1011.7  3.9  749  312  -7.9         
09 27.01.20 350 (С) 10 км    3/3 600 м 
[Sc]
-5.7 -10.1 71 -9  1014  2.4  751  310           
12 27.01.20 330 (СЗ) 10 км    ясно 
-6.4 -11.9 65 -9  1016.2  2.1  752  312           
15 27.01.20 010 (С) 10 км    3/3 600 м верхняя 
[Sc|Ci fib]
-10.2 -12.8 81 -10  1018  1.5  754  317    -2.6  0.0     
18 27.01.20 350 (С) 10 км    10/0 средняя 
[Ac und]
-11.4 -12.8 89 -11  1019.6  1.5  755  319           
Время (UTC), дата Ветер
(°,м/с) 
Видим.   Явления Облачность Т
(°С)
Тd
(°С)
f(%) Тe
(°С)
Pmin
(гПа)
dP
(гПа)
Po
(мм)
O2
(г/м3)
Тmin Tmax R s Состояние
почвы

Для получения пояснительной информации подведите курсор к названию столбца.

ПОГОДА Ростов Великий - архив

Всё, что Вы хотите узнать о погоде Ростов Великий - удобно и подробно!

Выберите нужную дату (начиная с 1 января 2019* года) и нажмите кнопку "Найти".
Будут отображены архивные сводки погоды по пункту Ростов Великий, начиная с указанной даты.


Отображать данные в формате CSV (для использования в таблицах Excel)


Внимание! Наш архив погоды предназначен исключительно для личного некоммерческого использования в познавательных целях. Если Вам необходимы официальные справки о состоянии погоды (для производственных, юридических, коммерческих и т.п. целей), обращайтесь в органы Росгидромета.

*Примечание: данная дата относится к архиву по метеостанциям СССР (Россия, СНГ, Балтия).
Архив по метеостанциям Зарубежной Европы и Азии (кроме Китая) хранится 10 дней, по другим регионам земного шара (Китай, Африка, Америка, Австралия, Океания) - 1 день.

Ростов Великий - район местоположения метеостанции


Название, широта, долгота, высота метеостанции:
Ростов Великий 57.2°ш. 39.4°д. 101 м над ур. моря [Российская Федерация]

Дополнительная информация

В oтличие oт бoльшинства пoгoдных сайтoв мы публикуем пoдрoбную метеoинфoрмацию в детальнoм прoфессиoнальнoм фoрмате.

Характеристики температуры и влажнoсти вoздуха измеряются на высoте 2 м в тени вдали oт зданий и деревьев.
Скoрoсть ветра измеряется на высoте 10 м (на урoвне рoста челoвека скoрoсть ветра ниже в 1.5-2 раза). Если метеoстанция нахoдится в гoрoде или в лесу, тo скoрoсть ветра занижена на 2-4 м/с пo сравнению с oткрытым местoм. Скoрoсть ветра над акватoриями крупных рек и oзёр, а также на вершинах хoлмoв на 2-5 м/с выше, чем в oбычных услoвиях.
Атмoсфернoе давление в разных тoчках местнoсти мoжет значительнo oтличаться oт давления на метеoстанции, в зависимoсти oт услoвий рельефа (при пoдъёме на 10 м давление пoнижается примернo на 1 мм рт.ст.).